Weather History for Marianna, FL

Change the Weather History Date:

Friday, December 13, 2013

  Actual Average Record
Temperature  
Mean Temperature 46 °F 53 °F  
Max Temperature 61 °F 64 °F 79 °F (2001)
Min Temperature 31 °F 42 °F 28 °F (2010)
Degree Days  
Heating Degree Days 19    
Month to date heating degree days 74  
Since 1 July heating degree days 333  
Cooling Degree Days 0    
Month to date cooling degree days 34  
Year to date cooling degree days 2519  
Moisture  
Dew Point 36 °F    
Average Humidity 68    
Maximum Humidity 89    
Minimum Humidity 47    
Precipitation  
Precipitation 0.00 in 0.13 in 1.16 in (2002)
Month to date precipitation 0.28 1.80  
Year to date precipitation 58.92 51.47  
Sea Level Pressure  
Sea Level Pressure 30.25 in    
Wind  
Wind Speed 3 mph (ENE)    
Max Wind Speed 8 mph    
Max Gust Speed 23 mph    
Visibility 10 miles    
Events      
T = Trace of Precipitation, MM = Missing Value Source: NWS Daily Summary

Daily Weather History Graph

Daily Weather History Graph

Search for Another Location

Airport:

Trip Planner

Search our weather history database for the weather conditions in past years. The results will help you decide how hot, cold, wet, or windy it might be!

Date:

Astronomy

Dec. 13, 2013 Rise Set
Actual Time 6:29 AM CST 4:40 PM CST
Civil Twilight 6:03 AM CST 5:06 PM CST
Nautical Twilight 5:33 AM CST 5:36 PM CST
Astronomical Twilight 5:03 AM CST 6:06 PM CST
Moon 2:13 PM CST (12/13) 3:01 AM CST (12/13)
Length of Visible Light 11h 03m
Length of Day
10h 10m
Waxing Gibbous, 88% of the Moon is Illuminated
Dec 13
Waxing Gibbous
Dec 17
Full
Dec 25
Last Quarter
Jan 1
New
Jan 7
First Quarter

Hourly Weather History & Observations

Time (CST) Temp. Windchill Dew Point Humidity Pressure Visibility Wind Dir Wind Speed Gust Speed Precip Events Conditions
12:53 AM 34.0 °F - 30.0 °F 85% 30.36 in 10.0 mi Calm Calm - N/A   Clear
1:53 AM 34.0 °F - 28.0 °F 79% 30.35 in 10.0 mi Calm Calm - N/A   Clear
2:53 AM 34.0 °F - 27.0 °F 75% 30.35 in 10.0 mi Calm Calm - N/A   Clear
3:53 AM 34.0 °F 28.8 °F 25.0 °F 70% 30.33 in 10.0 mi ENE 5.8 mph - N/A   Clear
4:53 AM 32.0 °F 27.5 °F 25.0 °F 75% 30.32 in 10.0 mi ENE 4.6 mph - N/A   Clear
5:53 AM 32.0 °F - 25.0 °F 75% 30.33 in 10.0 mi Calm Calm - N/A   Clear
6:53 AM 32.0 °F - 25.0 °F 75% 30.35 in 10.0 mi Calm Calm - N/A   Clear
7:53 AM 37.0 °F 33.3 °F 28.0 °F 70% 30.36 in 10.0 mi NE 4.6 mph - N/A   Clear
8:53 AM 43.0 °F 40.3 °F 30.0 °F 60% 30.35 in 10.0 mi ENE 4.6 mph - N/A   Clear
9:53 AM 48.0 °F - 30.9 °F 52% 30.34 in 10.0 mi Calm Calm - N/A   Clear
10:53 AM 52.0 °F - 32.0 °F 47% 30.31 in 10.0 mi ENE 4.6 mph - N/A   Clear
11:53 AM 55.9 °F - 35.1 °F 45% 30.25 in 10.0 mi SE 4.6 mph - N/A   Clear
12:53 PM 57.9 °F - 37.9 °F 47% 30.22 in 10.0 mi Variable 3.5 mph - N/A   Clear
1:53 PM 61.0 °F - 41.0 °F 48% 30.19 in 10.0 mi ENE 8.1 mph - N/A   Clear
2:53 PM 60.1 °F - 42.1 °F 51% 30.18 in 10.0 mi ENE 6.9 mph - N/A   Clear
3:53 PM 57.9 °F - 43.0 °F 58% 30.17 in 10.0 mi ENE 6.9 mph - N/A   Clear
4:53 PM 55.0 °F - 43.0 °F 64% 30.17 in 10.0 mi East 3.5 mph - N/A   Clear
5:53 PM 54.0 °F - 45.0 °F 72% 30.17 in 10.0 mi Calm Calm - N/A   Clear
6:53 PM 52.0 °F - 45.0 °F 77% 30.16 in 10.0 mi NE 3.5 mph - N/A   Clear
7:53 PM 52.0 °F - 45.0 °F 77% 30.15 in 10.0 mi Calm Calm - N/A   Clear
8:53 PM 51.1 °F - 46.9 °F 86% 30.14 in 10.0 mi ENE 3.5 mph - N/A   Clear
9:53 PM 53.1 °F - 46.9 °F 80% 30.12 in 10.0 mi East 4.6 mph - N/A   Clear
10:53 PM 52.0 °F - 46.9 °F 83% 30.12 in 10.0 mi Calm Calm - N/A   Clear
11:53 PM 51.1 °F - 46.9 °F 86% 30.10 in 10.0 mi Calm Calm - N/A   Clear